Time,TemperatureF,DewpointF,PressureIn,WindDirection,WindDirectionDegrees,WindSpeedMPH,WindSpeedGustMPH,Humidity,HourlyPrecipIn,Conditions,Clouds,dailyrainin,SoftwareType,DateUTC
2013-08-06 00:00:00,85.8,76.6,29.86,SSE,147,4.0,10.0,74,0.00,,---,0.00,VWS V14.00,2013-08-06 05:00:00,
2013-08-06 00:02:00,84.6,76.6,29.85,South,173,10.0,11.0,77,0.00,,---,0.00,VWS V14.00,2013-08-06 05:02:00,
2013-08-06 00:07:00,84.4,76.4,29.85,SSW,212,9.0,13.0,77,0.00,,---,0.00,VWS V14.00,2013-08-06 05:07:00,
2013-08-06 00:12:00,84.4,76.4,29.85,SSW,205,2.0,13.0,77,0.00,,---,0.00,VWS V14.00,2013-08-06 05:12:00,
2013-08-06 00:15:00,85.4,77.0,29.85,South,184,2.0,10.0,76,0.00,,---,0.00,VWS V14.00,2013-08-06 05:15:00,
2013-08-06 00:17:00,84.3,76.3,29.85,SSW,199,1.0,13.0,77,0.00,,---,0.00,VWS V14.00,2013-08-06 05:17:00,
2013-08-06 00:22:00,84.2,76.2,29.85,SSW,194,5.0,6.0,77,0.00,,---,0.00,VWS V14.00,2013-08-06 05:22:00,
2013-08-06 00:27:00,84.0,75.6,29.85,SSW,192,10.0,13.0,76,0.00,,---,0.00,VWS V14.00,2013-08-06 05:27:00,
2013-08-06 00:30:00,85.2,76.8,29.85,South,188,3.0,12.0,76,0.00,,---,0.00,VWS V14.00,2013-08-06 05:30:00,
2013-08-06 00:32:00,83.9,75.5,29.86,SSW,196,4.0,13.0,76,0.00,,---,0.00,VWS V14.00,2013-08-06 05:32:00,
2013-08-06 00:37:00,83.8,75.0,29.86,SSW,201,9.0,10.0,75,0.00,,---,0.00,VWS V14.00,2013-08-06 05:37:00,
2013-08-06 00:42:00,83.7,74.9,29.86,South,188,5.0,10.0,75,0.00,,---,0.00,VWS V14.00,2013-08-06 05:42:00,
2013-08-06 00:45:00,84.9,76.9,29.85,SSW,203,5.0,14.0,77,0.00,,---,0.00,VWS V14.00,2013-08-06 05:45:00,
2013-08-06 00:47:00,83.6,74.8,29.86,SW,219,3.0,10.0,75,0.00,,---,0.00,VWS V14.00,2013-08-06 05:47:00,
2013-08-06 00:52:00,83.6,74.4,29.86,South,180,4.0,12.0,74,0.00,,---,0.00,VWS V14.00,2013-08-06 05:52:00,
2013-08-06 00:57:00,83.5,73.9,29.86,SSW,196,7.0,12.0,73,0.00,,---,0.00,VWS V14.00,2013-08-06 05:57:00,
2013-08-06 01:00:00,84.5,76.5,29.85,South,190,8.0,15.0,77,0.00,,---,0.00,VWS V14.00,2013-08-06 06:00:00,
2013-08-06 01:02:00,83.4,73.4,29.86,SW,218,4.0,12.0,72,0.00,,---,0.00,VWS V14.00,2013-08-06 06:02:00,
2013-08-06 01:07:00,83.3,72.9,29.86,SSW,196,4.0,8.0,71,0.00,,---,0.00,VWS V14.00,2013-08-06 06:07:00,
2013-08-06 01:12:00,83.2,72.4,29.86,SW,220,5.0,11.0,70,0.00,,---,0.00,VWS V14.00,2013-08-06 06:12:00,
2013-08-06 01:15:00,84.2,75.8,29.85,SSW,194,6.0,13.0,76,0.00,,---,0.00,VWS V14.00,2013-08-06 06:15:00,
2013-08-06 01:17:00,83.1,72.3,29.86,SSW,195,0.0,11.0,70,0.00,,---,0.00,VWS V14.00,2013-08-06 06:17:00,
2013-08-06 01:22:00,82.9,71.7,29.87,SSW,206,5.0,7.0,69,0.00,,---,0.00,VWS V14.00,2013-08-06 06:22:00,
2013-08-06 01:27:00,82.8,71.2,29.86,SSW,196,7.0,10.0,68,0.00,,---,0.00,VWS V14.00,2013-08-06 06:27:00,
2013-08-06 01:30:00,83.9,75.5,29.86,South,180,5.0,13.0,76,0.00,,---,0.00,VWS V14.00,2013-08-06 06:30:00,
2013-08-06 01:32:00,82.7,71.1,29.86,SW,221,1.0,10.0,68,0.00,,---,0.00,VWS V14.00,2013-08-06 06:32:00,
2013-08-06 01:37:00,82.6,71.0,29.86,South,188,1.0,10.0,68,0.00,,---,0.00,VWS V14.00,2013-08-06 06:37:00,
2013-08-06 01:42:00,82.5,70.9,29.86,SSW,209,7.0,12.0,68,0.00,,---,0.00,VWS V14.00,2013-08-06 06:42:00,
2013-08-06 01:45:00,83.6,74.4,29.86,SW,214,5.0,10.0,74,0.00,,---,0.00,VWS V14.00,2013-08-06 06:45:00,
2013-08-06 01:47:00,82.4,70.8,29.86,SW,225,5.0,12.0,68,0.00,,---,0.00,VWS V14.00,2013-08-06 06:47:00,
2013-08-06 01:52:00,82.3,70.7,29.85,SSW,211,5.0,9.0,68,0.00,,---,0.00,VWS V14.00,2013-08-06 06:52:00,
2013-08-06 01:57:00,82.2,70.6,29.86,SSW,197,9.0,15.0,68,0.00,,---,0.00,VWS V14.00,2013-08-06 06:57:00,
2013-08-06 02:00:00,83.4,73.4,29.86,WSW,242,4.0,12.0,72,0.00,,---,0.00,VWS V14.00,2013-08-06 07:00:00,
2013-08-06 02:02:00,82.2,70.6,29.86,SW,215,4.0,15.0,68,0.00,,---,0.00,VWS V14.00,2013-08-06 07:02:00,
2013-08-06 02:07:00,82.1,70.5,29.86,South,183,4.0,13.0,68,0.00,,---,0.00,VWS V14.00,2013-08-06 07:07:00,
2013-08-06 02:12:00,82.0,70.4,29.86,SSW,213,7.0,13.0,68,0.00,,---,0.00,VWS V14.00,2013-08-06 07:12:00,
2013-08-06 02:15:00,83.0,72.2,29.86,SSW,196,1.0,11.0,70,0.00,,---,0.00,VWS V14.00,2013-08-06 07:15:00,
2013-08-06 02:17:00,81.8,70.6,29.86,SW,227,11.0,13.0,69,0.00,,---,0.00,VWS V14.00,2013-08-06 07:17:00,
2013-08-06 02:22:00,81.6,70.4,29.86,SW,214,4.0,11.0,69,0.00,,---,0.00,VWS V14.00,2013-08-06 07:22:00,
2013-08-06 02:27:00,81.5,70.8,29.86,SSW,203,9.0,12.0,70,0.00,,---,0.00,VWS V14.00,2013-08-06 07:27:00,
2013-08-06 02:30:00,82.6,71.0,29.86,SSW,206,5.0,10.0,68,0.00,,---,0.00,VWS V14.00,2013-08-06 07:30:00,
2013-08-06 02:32:00,81.3,70.6,29.86,SW,234,7.0,12.0,70,0.00,,---,0.00,VWS V14.00,2013-08-06 07:32:00,
2013-08-06 02:37:00,81.2,70.5,29.86,SW,217,6.0,9.0,70,0.00,,---,0.00,VWS V14.00,2013-08-06 07:37:00,
2013-08-06 02:42:00,81.1,70.8,29.86,SSW,196,9.0,11.0,71,0.00,,---,0.00,VWS V14.00,2013-08-06 07:42:00,
2013-08-06 02:45:00,82.3,70.2,29.85,SW,219,6.0,12.0,67,0.00,,---,0.00,VWS V14.00,2013-08-06 07:45:00,
2013-08-06 02:47:00,80.9,70.6,29.86,SW,219,8.0,11.0,71,0.00,,---,0.00,VWS V14.00,2013-08-06 07:47:00,
2013-08-06 02:52:00,80.7,70.8,29.86,WSW,237,6.0,12.0,72,0.00,,---,0.00,VWS V14.00,2013-08-06 07:52:00,
2013-08-06 02:57:00,80.6,70.8,29.86,SSW,211,7.0,12.0,72,0.00,,---,0.00,VWS V14.00,2013-08-06 07:57:00,
2013-08-06 03:00:00,82.2,70.6,29.86,SW,222,5.0,15.0,68,0.00,,---,0.00,VWS V14.00,2013-08-06 08:00:00,
2013-08-06 03:02:00,80.5,71.1,29.85,SW,215,6.0,19.0,73,0.00,,---,0.00,VWS V14.00,2013-08-06 08:02:00,
2013-08-06 03:07:00,80.3,70.9,29.86,SW,222,4.0,9.0,73,0.00,,---,0.00,VWS V14.00,2013-08-06 08:07:00,
2013-08-06 03:12:00,80.2,71.2,29.85,SSW,200,7.0,10.0,74,0.00,,---,0.00,VWS V14.00,2013-08-06 08:12:00,
2013-08-06 03:15:00,81.7,70.6,29.86,South,176,7.0,13.0,69,0.00,,---,0.00,VWS V14.00,2013-08-06 08:15:00,
2013-08-06 03:17:00,80.0,71.0,29.85,WSW,240,7.0,11.0,74,0.00,,---,0.00,VWS V14.00,2013-08-06 08:17:00,
2013-08-06 03:22:00,79.9,71.3,29.85,SW,228,1.0,11.0,75,0.00,,---,0.00,VWS V14.00,2013-08-06 08:22:00,
2013-08-06 03:27:00,79.8,71.6,29.85,SW,223,4.0,14.0,76,0.00,,---,0.00,VWS V14.00,2013-08-06 08:27:00,
2013-08-06 03:30:00,81.2,70.5,29.86,WSW,248,4.0,12.0,70,0.00,,---,0.00,VWS V14.00,2013-08-06 08:30:00,
2013-08-06 03:32:00,79.6,71.8,29.85,SW,234,6.0,14.0,77,0.00,,---,0.00,VWS V14.00,2013-08-06 08:32:00,
2013-08-06 03:37:00,79.5,72.0,29.85,WSW,240,5.0,10.0,78,0.00,,---,0.00,VWS V14.00,2013-08-06 08:37:00,
2013-08-06 03:42:00,79.3,71.8,29.85,SW,219,7.0,11.0,78,0.00,,---,0.00,VWS V14.00,2013-08-06 08:42:00,
2013-08-06 03:45:00,80.8,70.5,29.86,WSW,241,9.0,12.0,71,0.00,,---,0.00,VWS V14.00,2013-08-06 08:45:00,
2013-08-06 03:47:00,79.2,72.1,29.85,SW,227,5.0,11.0,79,0.00,,---,0.00,VWS V14.00,2013-08-06 08:47:00,
2013-08-06 03:52:00,79.0,72.3,29.85,SSW,206,3.0,8.0,80,0.00,,---,0.00,VWS V14.00,2013-08-06 08:52:00,
2013-08-06 03:57:00,78.9,72.2,29.85,SW,214,6.0,8.0,80,0.00,,---,0.00,VWS V14.00,2013-08-06 08:57:00,
2013-08-06 04:00:00,80.4,71.0,29.85,SW,217,5.0,19.0,73,0.00,,---,0.00,VWS V14.00,2013-08-06 09:00:00,
2013-08-06 04:02:00,78.7,72.4,29.85,SW,234,5.0,10.0,81,0.00,,---,0.00,VWS V14.00,2013-08-06 09:02:00,
2013-08-06 04:08:00,78.7,72.4,29.85,SW,225,5.0,10.0,81,0.00,,---,0.00,VWS V14.00,2013-08-06 09:08:00,
2013-08-06 04:12:00,78.7,72.8,29.85,WSW,240,6.0,10.0,82,0.00,,---,0.00,VWS V14.00,2013-08-06 09:12:00,
2013-08-06 04:15:00,80.0,71.4,29.85,SSW,212,6.0,13.0,75,0.00,,---,0.00,VWS V14.00,2013-08-06 09:15:00,
2013-08-06 04:18:00,78.5,72.6,29.85,SW,234,7.0,10.0,82,0.00,,---,0.00,VWS V14.00,2013-08-06 09:18:00,
2013-08-06 04:22:00,78.4,72.8,29.85,SW,236,4.0,7.0,83,0.00,,---,0.00,VWS V14.00,2013-08-06 09:22:00,
2013-08-06 04:23:00,78.4,72.8,29.85,SW,219,4.0,7.0,83,0.00,,---,0.00,VWS V14.00,2013-08-06 09:23:00,
2013-08-06 04:28:00,78.3,72.7,29.85,WSW,257,2.0,7.0,83,0.00,,---,0.00,VWS V14.00,2013-08-06 09:28:00,
2013-08-06 04:30:00,79.6,71.8,29.85,SW,229,6.0,14.0,77,0.00,,---,0.00,VWS V14.00,2013-08-06 09:30:00,
2013-08-06 04:33:00,78.1,72.5,29.85,SW,228,1.0,7.0,83,0.00,,---,0.00,VWS V14.00,2013-08-06 09:33:00,
2013-08-06 04:38:00,78.0,72.8,29.85,SW,217,6.0,6.0,84,0.00,,---,0.00,VWS V14.00,2013-08-06 09:38:00,
2013-08-06 04:43:00,77.9,72.7,29.85,WSW,257,6.0,8.0,84,0.00,,---,0.00,VWS V14.00,2013-08-06 09:43:00,
2013-08-06 04:45:00,79.1,72.0,29.85,WSW,242,1.0,11.0,79,0.00,,---,0.00,VWS V14.00,2013-08-06 09:45:00,
2013-08-06 04:48:00,77.8,72.6,29.85,SW,223,0.0,8.0,84,0.00,,---,0.00,VWS V14.00,2013-08-06 09:48:00,
2013-08-06 04:53:00,77.7,72.8,29.85,WSW,237,4.0,5.0,85,0.00,,---,0.00,VWS V14.00,2013-08-06 09:53:00,
2013-08-06 04:58:00,77.6,72.7,29.85,WSW,252,2.0,6.0,85,0.00,,---,0.00,VWS V14.00,2013-08-06 09:58:00,
2013-08-06 05:00:00,78.7,72.4,29.85,SW,230,3.0,10.0,81,0.00,,---,0.00,VWS V14.00,2013-08-06 10:00:00,
2013-08-06 05:03:00,77.5,72.6,29.84,WSW,239,0.0,7.0,85,0.00,,---,0.00,VWS V14.00,2013-08-06 10:03:00,
2013-08-06 05:08:00,77.4,72.9,29.84,SW,214,3.0,8.0,86,0.00,,---,0.00,VWS V14.00,2013-08-06 10:08:00,
2013-08-06 05:13:00,77.3,72.8,29.84,SSW,203,2.0,9.0,86,0.00,,---,0.00,VWS V14.00,2013-08-06 10:13:00,
2013-08-06 05:15:00,78.5,72.6,29.85,West,267,4.0,10.0,82,0.00,,---,0.00,VWS V14.00,2013-08-06 10:15:00,
2013-08-06 05:18:00,77.2,73.0,29.84,SW,217,4.0,9.0,87,0.00,,---,0.00,VWS V14.00,2013-08-06 10:18:00,
2013-08-06 05:23:00,77.1,72.9,29.84,South,188,6.0,9.0,87,0.00,,---,0.00,VWS V14.00,2013-08-06 10:23:00,
2013-08-06 05:28:00,77.0,73.2,29.84,South,176,3.0,9.0,88,0.00,,---,0.00,VWS V14.00,2013-08-06 10:28:00,
2013-08-06 05:30:00,78.1,72.5,29.85,WSW,242,4.0,7.0,83,0.00,,---,0.00,VWS V14.00,2013-08-06 10:30:00,
2013-08-06 05:33:00,76.9,73.1,29.84,SW,230,7.0,10.0,88,0.00,,---,0.00,VWS V14.00,2013-08-06 10:33:00,
2013-08-06 05:38:00,76.9,73.4,29.84,WSW,256,3.0,11.0,89,0.00,,---,0.00,VWS V14.00,2013-08-06 10:38:00,
2013-08-06 05:43:00,76.8,73.3,29.84,SW,228,6.0,11.0,89,0.00,,---,0.00,VWS V14.00,2013-08-06 10:43:00,
2013-08-06 05:45:00,77.8,72.6,29.85,WSW,237,0.0,8.0,84,0.00,,---,0.00,VWS V14.00,2013-08-06 10:45:00,
2013-08-06 05:48:00,76.7,73.6,29.85,WSW,254,4.0,12.0,90,0.00,,---,0.00,VWS V14.00,2013-08-06 10:48:00,
2013-08-06 05:53:00,76.7,73.6,29.85,SSW,206,8.0,11.0,90,0.00,,---,0.00,VWS V14.00,2013-08-06 10:53:00,
2013-08-06 05:58:00,76.7,73.6,29.85,WSW,256,6.0,11.0,90,0.00,,---,0.00,VWS V14.00,2013-08-06 10:58:00,
2013-08-06 06:00:00,77.5,73.0,29.84,SW,219,7.0,10.0,86,0.00,,---,0.00,VWS V14.00,2013-08-06 11:00:00,
2013-08-06 06:03:00,76.7,73.6,29.85,WNW,286,2.0,16.0,90,0.00,,---,0.00,VWS V14.00,2013-08-06 11:03:00,
2013-08-06 06:08:00,76.7,73.6,29.85,West,264,8.0,18.0,90,0.00,,---,0.00,VWS V14.00,2013-08-06 11:08:00,
2013-08-06 06:13:00,76.7,73.9,29.85,WSW,257,1.0,18.0,91,0.00,,---,0.00,VWS V14.00,2013-08-06 11:13:00,
2013-08-06 06:15:00,77.2,73.0,29.84,SSW,196,8.0,9.0,87,0.00,,---,0.00,VWS V14.00,2013-08-06 11:15:00,
2013-08-06 06:18:00,76.7,73.6,29.85,West,269,4.0,18.0,90,0.00,,---,0.00,VWS V14.00,2013-08-06 11:18:00,
2013-08-06 06:23:00,76.7,73.6,29.86,SSW,202,4.0,10.0,90,0.00,,---,0.00,VWS V14.00,2013-08-06 11:23:00,
2013-08-06 06:28:00,76.8,73.7,29.86,SW,215,6.0,12.0,90,0.00,,---,0.00,VWS V14.00,2013-08-06 11:28:00,
2013-08-06 06:30:00,76.9,73.4,29.84,SW,221,3.0,11.0,89,0.00,,---,0.00,VWS V14.00,2013-08-06 11:30:00,
2013-08-06 06:33:00,76.8,73.7,29.86,SSW,213,4.0,12.0,90,0.00,,---,0.00,VWS V14.00,2013-08-06 11:33:00,
2013-08-06 06:38:00,76.9,73.8,29.87,West,259,6.0,8.0,90,0.00,,---,0.00,VWS V14.00,2013-08-06 11:38:00,
2013-08-06 06:43:00,76.9,73.8,29.87,SSW,209,11.0,11.0,90,0.00,,---,0.00,VWS V14.00,2013-08-06 11:43:00,
2013-08-06 06:45:00,76.7,73.6,29.85,West,271,1.0,12.0,90,0.00,,---,0.00,VWS V14.00,2013-08-06 11:45:00,
2013-08-06 06:48:00,77.0,74.2,29.87,SSW,198,7.0,12.0,91,0.00,,---,0.00,VWS V14.00,2013-08-06 11:48:00,
2013-08-06 06:53:00,77.0,73.8,29.87,South,188,4.0,11.0,90,0.00,,---,0.00,VWS V14.00,2013-08-06 11:53:00,
2013-08-06 06:58:00,77.1,73.9,29.87,West,271,10.0,12.0,90,0.00,,---,0.00,VWS V14.00,2013-08-06 11:58:00,
2013-08-06 07:00:00,76.7,73.6,29.85,SW,233,0.0,16.0,90,0.00,,---,0.00,VWS V14.00,2013-08-06 12:00:00,
2013-08-06 07:03:00,77.1,73.9,29.87,SW,228,8.0,12.0,90,0.00,,---,0.00,VWS V14.00,2013-08-06 12:03:00,
2013-08-06 07:08:00,77.1,73.9,29.87,SW,217,5.0,15.0,90,0.00,,---,0.00,VWS V14.00,2013-08-06 12:08:00,
2013-08-06 07:13:00,77.2,74.0,29.87,West,269,8.0,15.0,90,0.00,,---,0.00,VWS V14.00,2013-08-06 12:13:00,
2013-08-06 07:15:00,76.7,73.6,29.85,SSW,209,8.0,18.0,90,0.00,,---,0.00,VWS V14.00,2013-08-06 12:15:00,
2013-08-06 07:18:00,77.3,74.1,29.87,WSW,249,7.0,15.0,90,0.00,,---,0.00,VWS V14.00,2013-08-06 12:18:00,
2013-08-06 07:23:00,77.4,74.2,29.87,SSW,196,3.0,12.0,90,0.00,,---,0.00,VWS V14.00,2013-08-06 12:23:00,
2013-08-06 07:28:00,77.4,74.2,29.87,South,183,3.0,18.0,90,0.00,,---,0.00,VWS V14.00,2013-08-06 12:28:00,
2013-08-06 07:30:00,76.9,73.8,29.87,WSW,240,4.0,12.0,90,0.00,,---,0.00,VWS V14.00,2013-08-06 12:30:00,
2013-08-06 07:33:00,77.5,74.3,29.87,West,272,5.0,18.0,90,0.00,,---,0.00,VWS V14.00,2013-08-06 12:33:00,
2013-08-06 07:38:00,77.6,74.4,29.88,West,261,3.0,11.0,90,0.00,,---,0.00,VWS V14.00,2013-08-06 12:38:00,
2013-08-06 07:43:00,77.7,74.2,29.88,WSW,252,9.0,11.0,89,0.00,,---,0.00,VWS V14.00,2013-08-06 12:43:00,
2013-08-06 07:45:00,77.0,74.2,29.87,SSW,195,9.0,12.0,91,0.00,,---,0.00,VWS V14.00,2013-08-06 12:45:00,
2013-08-06 07:48:00,77.9,74.4,29.87,SW,227,4.0,11.0,89,0.00,,---,0.00,VWS V14.00,2013-08-06 12:48:00,
2013-08-06 07:53:00,78.0,74.5,29.88,SSW,212,8.0,11.0,89,0.00,,---,0.00,VWS V14.00,2013-08-06 12:53:00,
2013-08-06 07:58:00,78.2,74.7,29.88,WSW,241,8.0,11.0,89,0.00,,---,0.00,VWS V14.00,2013-08-06 12:58:00,
2013-08-06 08:00:00,77.1,73.9,29.87,SSW,209,5.0,12.0,90,0.00,,---,0.00,VWS V14.00,2013-08-06 13:00:00,
2013-08-06 08:03:00,78.4,74.6,29.88,SSW,210,7.0,11.0,88,0.00,,---,0.00,VWS V14.00,2013-08-06 13:03:00,
2013-08-06 08:08:00,78.7,74.8,29.88,WSW,240,1.0,11.0,88,0.00,,---,0.00,VWS V14.00,2013-08-06 13:08:00,
2013-08-06 08:13:00,78.8,74.6,29.88,West,275,4.0,11.0,87,0.00,,---,0.00,VWS V14.00,2013-08-06 13:13:00,
2013-08-06 08:15:00,77.3,74.1,29.87,SW,215,5.0,15.0,90,0.00,,---,0.00,VWS V14.00,2013-08-06 13:15:00,
2013-08-06 08:18:00,79.1,74.9,29.89,SW,218,2.0,11.0,87,0.00,,---,0.00,VWS V14.00,2013-08-06 13:18:00,
2013-08-06 08:23:00,79.2,74.7,29.89,West,281,8.0,13.0,86,0.00,,---,0.00,VWS V14.00,2013-08-06 13:23:00,
2013-08-06 08:28:00,79.3,74.4,29.89,WNW,297,8.0,18.0,85,0.00,,---,0.00,VWS V14.00,2013-08-06 13:28:00,
2013-08-06 08:30:00,77.5,74.3,29.87,SW,215,5.0,18.0,90,0.00,,---,0.00,VWS V14.00,2013-08-06 13:30:00,
2013-08-06 08:33:00,79.5,74.6,29.89,WSW,240,10.0,18.0,85,0.00,,---,0.00,VWS V14.00,2013-08-06 13:33:00,
2013-08-06 08:38:00,79.5,74.6,29.90,West,265,7.0,18.0,85,0.00,,---,0.00,VWS V14.00,2013-08-06 13:38:00,
2013-08-06 08:43:00,79.7,74.4,29.90,SW,225,10.0,18.0,84,0.00,,---,0.00,VWS V14.00,2013-08-06 13:43:00,
2013-08-06 08:45:00,77.9,74.4,29.88,SSW,206,7.0,11.0,89,0.00,,---,0.00,VWS V14.00,2013-08-06 13:45:00,
2013-08-06 08:48:00,79.8,74.5,29.90,SSE,156,5.0,18.0,84,0.00,,---,0.00,VWS V14.00,2013-08-06 13:48:00,
2013-08-06 08:53:00,79.9,74.3,29.90,SW,223,4.0,15.0,83,0.00,,---,0.00,VWS V14.00,2013-08-06 13:53:00,
2013-08-06 08:58:00,80.0,74.4,29.89,West,278,8.0,15.0,83,0.00,,---,0.00,VWS V14.00,2013-08-06 13:58:00,
2013-08-06 09:00:00,78.5,74.7,29.88,WSW,248,5.0,11.0,88,0.00,,---,0.00,VWS V14.00,2013-08-06 14:00:00,
2013-08-06 09:03:00,80.2,74.6,29.89,WSW,253,8.0,15.0,83,0.00,,---,0.00,VWS V14.00,2013-08-06 14:03:00,
2013-08-06 09:08:00,80.5,74.9,29.89,SW,228,7.0,12.0,83,0.00,,---,0.00,VWS V14.00,2013-08-06 14:08:00,
2013-08-06 09:13:00,80.7,74.3,29.89,WNW,295,8.0,16.0,81,0.00,,---,0.00,VWS V14.00,2013-08-06 14:13:00,
2013-08-06 09:15:00,79.1,74.6,29.89,SW,229,4.0,11.0,86,0.00,,---,0.00,VWS V14.00,2013-08-06 14:15:00,
2013-08-06 09:18:00,81.1,74.7,29.89,WSW,241,2.0,16.0,81,0.00,,---,0.00,VWS V14.00,2013-08-06 14:18:00,
2013-08-06 09:23:00,81.6,74.8,29.89,West,259,10.0,13.0,80,0.00,,---,0.00,VWS V14.00,2013-08-06 14:23:00,
2013-08-06 09:28:00,81.7,74.6,29.89,WSW,250,9.0,18.0,79,0.00,,---,0.00,VWS V14.00,2013-08-06 14:28:00,
2013-08-06 09:30:00,79.5,74.6,29.90,SSW,192,11.0,18.0,85,0.00,,---,0.00,VWS V14.00,2013-08-06 14:30:00,
2013-08-06 09:33:00,81.8,74.3,29.90,SSW,210,6.0,18.0,78,0.00,,---,0.00,VWS V14.00,2013-08-06 14:33:00,
2013-08-06 09:38:00,82.0,74.5,29.90,SW,226,6.0,14.0,78,0.00,,---,0.00,VWS V14.00,2013-08-06 14:38:00,
2013-08-06 09:43:00,82.4,74.9,29.90,WSW,250,2.0,14.0,78,0.00,,---,0.00,VWS V14.00,2013-08-06 14:43:00,
2013-08-06 09:45:00,79.9,74.6,29.90,West,271,11.0,18.0,84,0.00,,---,0.00,VWS V14.00,2013-08-06 14:45:00,
2013-08-06 09:48:00,83.0,75.1,29.90,WSW,254,11.0,14.0,77,0.00,,---,0.00,VWS V14.00,2013-08-06 14:48:00,
2013-08-06 09:53:00,83.3,74.9,29.90,West,263,6.0,13.0,76,0.00,,---,0.00,VWS V14.00,2013-08-06 14:53:00,
2013-08-06 09:58:00,83.2,74.1,29.89,SSW,209,4.0,14.0,74,0.00,,---,0.00,VWS V14.00,2013-08-06 14:58:00,
2013-08-06 10:00:00,80.3,74.7,29.89,WNW,286,11.0,15.0,83,0.00,,---,0.00,VWS V14.00,2013-08-06 15:00:00,
2013-08-06 10:03:00,83.3,74.6,29.90,WNW,292,5.0,16.0,75,0.00,,---,0.00,VWS V14.00,2013-08-06 15:03:00,
2013-08-06 10:08:00,84.0,74.8,29.90,WSW,254,5.0,10.0,74,0.00,,---,0.00,VWS V14.00,2013-08-06 15:08:00,
2013-08-06 10:13:00,84.5,74.9,29.89,SW,232,13.0,15.0,73,0.00,,---,0.00,VWS V14.00,2013-08-06 15:13:00,
2013-08-06 10:15:00,81.3,74.9,29.89,SSW,207,4.0,16.0,81,0.00,,---,0.00,VWS V14.00,2013-08-06 15:15:00,
2013-08-06 10:18:00,84.8,74.8,29.89,SW,215,9.0,15.0,72,0.00,,---,0.00,VWS V14.00,2013-08-06 15:18:00,
2013-08-06 10:23:00,85.0,75.0,29.89,SW,233,3.0,16.0,72,0.00,,---,0.00,VWS V14.00,2013-08-06 15:23:00,
2013-08-06 10:28:00,85.8,74.9,29.89,WSW,244,9.0,16.0,70,0.00,,---,0.00,VWS V14.00,2013-08-06 15:28:00,
2013-08-06 10:30:00,81.8,74.3,29.90,SW,222,5.0,18.0,78,0.00,,---,0.00,VWS V14.00,2013-08-06 15:30:00,
2013-08-06 10:33:00,85.9,74.6,29.89,WSW,250,9.0,16.0,69,0.00,,---,0.00,VWS V14.00,2013-08-06 15:33:00,
2013-08-06 10:38:00,86.1,75.2,29.89,WSW,257,7.0,13.0,70,0.00,,---,0.00,VWS V14.00,2013-08-06 15:38:00,
2013-08-06 10:43:00,86.5,74.7,29.89,West,277,10.0,14.0,68,0.00,,---,0.00,VWS V14.00,2013-08-06 15:43:00,
2013-08-06 10:45:00,83.1,74.8,29.90,WSW,240,4.0,14.0,76,0.00,,---,0.00,VWS V14.00,2013-08-06 15:45:00,
2013-08-06 10:48:00,86.7,74.9,29.89,WNW,284,3.0,14.0,68,0.00,,---,0.00,VWS V14.00,2013-08-06 15:48:00,
2013-08-06 10:53:00,87.1,74.8,29.89,SSW,202,3.0,12.0,67,0.00,,---,0.00,VWS V14.00,2013-08-06 15:53:00,
2013-08-06 10:58:00,87.6,75.3,29.89,SSW,193,5.0,13.0,67,0.00,,---,0.00,VWS V14.00,2013-08-06 15:58:00,
2013-08-06 11:00:00,83.4,74.7,29.90,SSW,207,7.0,16.0,75,0.00,,---,0.00,VWS V14.00,2013-08-06 16:00:00,
2013-08-06 11:03:00,87.9,74.2,29.89,WSW,246,7.0,13.0,64,0.00,,---,0.00,VWS V14.00,2013-08-06 16:03:00,
2013-08-06 11:08:00,88.0,74.3,29.89,SW,224,4.0,13.0,64,0.00,,---,0.00,VWS V14.00,2013-08-06 16:08:00,
2013-08-06 11:13:00,88.6,74.4,29.90,WSW,250,6.0,13.0,63,0.00,,---,0.00,VWS V14.00,2013-08-06 16:13:00,
2013-08-06 11:15:00,84.9,74.4,29.89,SW,218,4.0,15.0,71,0.00,,---,0.00,VWS V14.00,2013-08-06 16:15:00,
2013-08-06 11:18:00,88.8,74.1,29.89,West,260,7.0,13.0,62,0.00,,---,0.00,VWS V14.00,2013-08-06 16:18:00,
2013-08-06 11:23:00,88.9,74.2,29.89,WSW,238,2.0,11.0,62,0.00,,---,0.00,VWS V14.00,2013-08-06 16:23:00,
2013-08-06 11:28:00,89.4,74.7,29.88,SW,221,8.0,12.0,62,0.00,,---,0.00,VWS V14.00,2013-08-06 16:28:00,
2013-08-06 11:30:00,85.9,74.6,29.89,SSW,209,6.0,16.0,69,0.00,,---,0.00,VWS V14.00,2013-08-06 16:30:00,
2013-08-06 11:33:00,89.7,74.5,29.89,WSW,244,2.0,12.0,61,0.00,,---,0.00,VWS V14.00,2013-08-06 16:33:00,
2013-08-06 11:39:00,90.4,75.1,29.88,SSW,203,10.0,12.0,61,0.00,,---,0.00,VWS V14.00,2013-08-06 16:39:00,
2013-08-06 11:44:00,90.5,74.2,29.88,WSW,238,6.0,12.0,59,0.00,,---,0.00,VWS V14.00,2013-08-06 16:44:00,
2013-08-06 11:45:00,86.8,75.0,29.89,SSW,192,2.0,14.0,68,0.00,,---,0.00,VWS V14.00,2013-08-06 16:45:00,
2013-08-06 11:49:00,90.7,74.9,29.88,SW,232,7.0,12.0,60,0.00,,---,0.00,VWS V14.00,2013-08-06 16:49:00,
2013-08-06 11:54:00,91.0,74.7,29.88,WNW,282,8.0,11.0,59,0.00,,---,0.00,VWS V14.00,2013-08-06 16:54:00,
2013-08-06 11:59:00,91.6,74.7,29.88,SSW,211,6.0,11.0,58,0.00,,---,0.00,VWS V14.00,2013-08-06 16:59:00,
2013-08-06 12:00:00,87.9,74.7,29.89,WNW,284,6.0,13.0,65,0.00,,---,0.00,VWS V14.00,2013-08-06 17:00:00,
2013-08-06 12:03:00,91.8,74.9,29.88,SW,231,6.0,13.0,58,0.00,,---,0.00,VWS V14.00,2013-08-06 17:03:00,
2013-08-06 12:09:00,91.8,74.9,29.88,WNW,283,9.0,10.0,58,0.00,,---,0.00,VWS V14.00,2013-08-06 17:09:00,
2013-08-06 12:14:00,92.2,75.3,29.88,SSW,203,5.0,11.0,58,0.00,,---,0.00,VWS V14.00,2013-08-06 17:14:00,
2013-08-06 12:15:00,88.8,74.6,29.89,WNW,283,9.0,13.0,63,0.00,,---,0.00,VWS V14.00,2013-08-06 17:15:00,
2013-08-06 12:19:00,92.3,74.9,29.88,SSW,213,8.0,16.0,57,0.00,,---,0.00,VWS V14.00,2013-08-06 17:19:00,
2013-08-06 12:24:00,92.2,74.8,29.87,West,280,5.0,12.0,57,0.00,,---,0.00,VWS V14.00,2013-08-06 17:24:00,
2013-08-06 12:27:00,92.4,74.4,29.87,SW,215,2.0,12.0,56,0.00,,---,0.00,VWS V14.00,2013-08-06 17:27:00,
2013-08-06 12:30:00,89.9,74.7,29.89,SW,223,7.0,12.0,61,0.00,,---,0.00,VWS V14.00,2013-08-06 17:30:00,
2013-08-06 12:32:00,92.6,74.6,29.88,WSW,248,9.0,14.0,56,0.00,,---,0.00,VWS V14.00,2013-08-06 17:32:00,
2013-08-06 12:37:00,92.7,74.7,29.88,SW,229,10.0,12.0,56,0.00,,---,0.00,VWS V14.00,2013-08-06 17:37:00,
2013-08-06 12:42:00,92.8,73.2,29.87,SW,217,6.0,12.0,53,0.00,,---,0.00,VWS V14.00,2013-08-06 17:42:00,
2013-08-06 12:45:00,90.8,75.0,29.89,WSW,240,6.0,12.0,60,0.00,,---,0.00,VWS V14.00,2013-08-06 17:45:00,
2013-08-06 12:47:00,93.1,74.6,29.88,South,175,5.0,13.0,55,0.00,,---,0.00,VWS V14.00,2013-08-06 17:47:00,
2013-08-06 12:52:00,93.4,74.3,29.88,SSE,167,2.0,10.0,54,0.00,,---,0.00,VWS V14.00,2013-08-06 17:52:00,
2013-08-06 12:57:00,93.7,74.6,29.87,NW,306,8.0,11.0,54,0.00,,---,0.00,VWS V14.00,2013-08-06 17:57:00,
2013-08-06 13:00:00,91.8,74.9,29.88,WNW,289,10.0,13.0,58,0.00,,---,0.00,VWS V14.00,2013-08-06 18:00:00,
2013-08-06 13:02:00,94.2,74.5,29.87,West,266,10.0,15.0,53,0.00,,---,0.00,VWS V14.00,2013-08-06 18:02:00,
2013-08-06 13:07:00,94.4,74.6,29.86,SSE,161,4.0,9.0,53,0.00,,---,0.00,VWS V14.00,2013-08-06 18:07:00,
2013-08-06 13:12:00,94.3,73.4,29.86,SW,219,14.0,14.0,51,0.00,,---,0.00,VWS V14.00,2013-08-06 18:12:00,
2013-08-06 13:15:00,92.3,74.3,29.88,WSW,252,8.0,16.0,56,0.00,,---,0.00,VWS V14.00,2013-08-06 18:15:00,
2013-08-06 13:17:00,94.2,73.3,29.86,WSW,246,4.0,14.0,51,0.00,,---,0.00,VWS V14.00,2013-08-06 18:17:00,
2013-08-06 13:22:00,94.6,73.7,29.86,WSW,252,5.0,10.0,51,0.00,,---,0.00,VWS V14.00,2013-08-06 18:22:00,
2013-08-06 13:27:00,94.9,73.9,29.86,West,259,10.0,11.0,51,0.00,,---,0.00,VWS V14.00,2013-08-06 18:27:00,
2013-08-06 13:30:00,92.7,75.2,29.88,SSW,202,12.0,14.0,57,0.00,,---,0.00,VWS V14.00,2013-08-06 18:30:00,
2013-08-06 13:32:00,94.9,73.9,29.86,SSW,211,8.0,16.0,51,0.00,,---,0.00,VWS V14.00,2013-08-06 18:32:00,
2013-08-06 13:37:00,95.1,72.9,29.85,SW,233,8.0,12.0,49,0.00,,---,0.00,VWS V14.00,2013-08-06 18:37:00,
2013-08-06 13:42:00,95.7,73.5,29.84,West,259,12.0,12.0,49,0.00,,---,0.00,VWS V14.00,2013-08-06 18:42:00,
2013-08-06 13:45:00,93.3,74.2,29.87,South,186,10.0,13.0,54,0.00,,---,0.00,VWS V14.00,2013-08-06 18:45:00,
2013-08-06 13:47:00,95.8,71.7,29.84,South,190,10.0,15.0,46,0.00,,---,0.00,VWS V14.00,2013-08-06 18:47:00,
2013-08-06 13:52:00,96.0,73.8,29.84,SSW,204,11.0,11.0,49,0.00,,---,0.00,VWS V14.00,2013-08-06 18:52:00,
2013-08-06 13:57:00,96.2,72.7,29.84,SW,215,5.0,11.0,47,0.00,,---,0.00,VWS V14.00,2013-08-06 18:57:00,
2013-08-06 14:00:00,94.3,74.6,29.87,West,261,7.0,15.0,53,0.00,,---,0.00,VWS V14.00,2013-08-06 19:00:00,
2013-08-06 14:02:00,96.5,73.0,29.84,West,275,3.0,11.0,47,0.00,,---,0.00,VWS V14.00,2013-08-06 19:02:00,
2013-08-06 14:07:00,96.9,72.7,29.84,SSW,203,7.0,12.0,46,0.00,,---,0.00,VWS V14.00,2013-08-06 19:07:00,
2013-08-06 14:12:00,97.0,72.8,29.83,SW,229,8.0,12.0,46,0.00,,---,0.00,VWS V14.00,2013-08-06 19:12:00,
2013-08-06 14:15:00,94.4,74.1,29.86,SW,218,3.0,14.0,52,0.00,,---,0.00,VWS V14.00,2013-08-06 19:15:00,
2013-08-06 14:17:00,97.1,72.9,29.83,WNW,302,4.0,12.0,46,0.00,,---,0.00,VWS V14.00,2013-08-06 19:17:00,
2013-08-06 14:22:00,97.4,72.5,29.83,SW,222,13.0,16.0,45,0.00,,---,0.00,VWS V14.00,2013-08-06 19:22:00,
2013-08-06 14:27:00,97.2,71.7,29.83,West,260,5.0,16.0,44,0.00,,---,0.00,VWS V14.00,2013-08-06 19:27:00,
2013-08-06 14:30:00,95.0,73.5,29.86,WSW,254,5.0,16.0,50,0.00,,---,0.00,VWS V14.00,2013-08-06 19:30:00,
2013-08-06 14:32:00,97.8,72.2,29.83,West,267,6.0,16.0,44,0.00,,---,0.00,VWS V14.00,2013-08-06 19:32:00,
2013-08-06 14:37:00,98.3,72.7,29.82,SW,226,6.0,8.0,44,0.00,,---,0.00,VWS V14.00,2013-08-06 19:37:00,
2013-08-06 14:42:00,98.5,72.2,29.82,SSW,207,7.0,11.0,43,0.00,,---,0.00,VWS V14.00,2013-08-06 19:42:00,
2013-08-06 14:45:00,95.9,73.1,29.84,SW,234,7.0,15.0,48,0.00,,---,0.00,VWS V14.00,2013-08-06 19:45:00,
2013-08-06 14:47:00,98.7,72.3,29.82,SW,229,2.0,12.0,43,0.00,,---,0.00,VWS V14.00,2013-08-06 19:47:00,
2013-08-06 14:52:00,98.9,71.8,29.82,SW,220,8.0,12.0,42,0.00,,---,0.00,VWS V14.00,2013-08-06 19:52:00,
2013-08-06 14:57:00,98.8,71.7,29.82,West,274,7.0,14.0,42,0.00,,---,0.00,VWS V14.00,2013-08-06 19:57:00,
2013-08-06 15:00:00,96.8,73.9,29.83,SSE,163,7.0,11.0,48,0.00,,---,0.00,VWS V14.00,2013-08-06 20:00:00,
2013-08-06 15:02:00,98.9,72.5,29.81,WSW,257,5.0,14.0,43,0.00,,---,0.00,VWS V14.00,2013-08-06 20:02:00,
2013-08-06 15:07:00,99.4,73.0,29.81,SW,214,3.0,11.0,43,0.00,,---,0.00,VWS V14.00,2013-08-06 20:07:00,
2013-08-06 15:12:00,99.5,71.6,29.81,WSW,257,5.0,12.0,41,0.00,,---,0.00,VWS V14.00,2013-08-06 20:12:00,
2013-08-06 15:15:00,97.4,73.2,29.83,WNW,299,11.0,12.0,46,0.00,,---,0.00,VWS V14.00,2013-08-06 20:15:00,
2013-08-06 15:17:00,99.5,71.6,29.81,WSW,254,5.0,12.0,41,0.00,,---,0.00,VWS V14.00,2013-08-06 20:17:00,
2013-08-06 15:22:00,99.6,71.7,29.81,WSW,238,7.0,13.0,41,0.00,,---,0.00,VWS V14.00,2013-08-06 20:22:00,
2013-08-06 15:27:00,99.6,71.7,29.80,SW,218,6.0,13.0,41,0.00,,---,0.00,VWS V14.00,2013-08-06 20:27:00,
2013-08-06 15:30:00,98.1,72.5,29.82,WNW,299,8.0,16.0,44,0.00,,---,0.00,VWS V14.00,2013-08-06 20:30:00,
2013-08-06 15:32:00,99.6,71.7,29.80,WSW,237,1.0,13.0,41,0.00,,---,0.00,VWS V14.00,2013-08-06 20:32:00,
2013-08-06 15:37:00,99.8,69.7,29.80,SW,231,4.0,10.0,38,0.00,,---,0.00,VWS V14.00,2013-08-06 20:37:00,
2013-08-06 15:42:00,100.0,70.6,29.79,WNW,297,5.0,11.0,39,0.00,,---,0.00,VWS V14.00,2013-08-06 20:42:00,
2013-08-06 15:45:00,98.9,73.2,29.82,SSW,211,10.0,15.0,44,0.00,,---,0.00,VWS V14.00,2013-08-06 20:45:00,
2013-08-06 15:47:00,100.4,71.7,29.80,SW,234,6.0,11.0,40,0.00,,---,0.00,VWS V14.00,2013-08-06 20:47:00,
2013-08-06 15:52:00,100.7,70.5,29.80,SW,216,8.0,11.0,38,0.00,,---,0.00,VWS V14.00,2013-08-06 20:52:00,
2013-08-06 15:57:00,100.9,71.4,29.79,SW,233,1.0,11.0,39,0.00,,---,0.00,VWS V14.00,2013-08-06 20:57:00,
2013-08-06 16:00:00,99.1,72.7,29.81,NNW,334,5.0,14.0,43,0.00,,---,0.00,VWS V14.00,2013-08-06 21:00:00,
2013-08-06 16:02:00,101.1,70.0,29.80,West,269,8.0,15.0,37,0.00,,---,0.00,VWS V14.00,2013-08-06 21:02:00,
2013-08-06 16:07:00,100.8,69.8,29.79,SW,220,4.0,11.0,37,0.00,,---,0.00,VWS V14.00,2013-08-06 21:07:00,
2013-08-06 16:12:00,100.6,71.2,29.78,South,172,11.0,19.0,39,0.00,,---,0.00,VWS V14.00,2013-08-06 21:12:00,
2013-08-06 16:15:00,99.6,71.7,29.81,SW,229,6.0,13.0,41,0.00,,---,0.00,VWS V14.00,2013-08-06 21:15:00,
2013-08-06 16:17:00,100.1,71.4,29.79,West,268,8.0,19.0,40,0.00,,---,0.00,VWS V14.00,2013-08-06 21:17:00,
2013-08-06 16:22:00,100.0,71.4,29.79,WSW,257,2.0,6.0,40,0.00,,---,0.00,VWS V14.00,2013-08-06 21:22:00,
2013-08-06 16:27:00,100.4,71.7,29.78,WNW,290,4.0,11.0,40,0.00,,---,0.00,VWS V14.00,2013-08-06 21:27:00,
2013-08-06 16:30:00,99.8,71.9,29.80,SW,215,10.0,13.0,41,0.00,,---,0.00,VWS V14.00,2013-08-06 21:30:00,
2013-08-06 16:32:00,100.7,71.2,29.78,South,178,7.0,11.0,39,0.00,,---,0.00,VWS V14.00,2013-08-06 21:32:00,
2013-08-06 16:37:00,101.4,74.1,29.78,SSE,153,1.0,6.0,42,0.00,,---,0.00,VWS V14.00,2013-08-06 21:37:00,
2013-08-06 16:42:00,101.6,72.8,29.78,South,188,9.0,13.0,40,0.00,,---,0.00,VWS V14.00,2013-08-06 21:42:00,
2013-08-06 16:45:00,100.5,71.8,29.80,West,260,2.0,11.0,40,0.00,,---,0.00,VWS V14.00,2013-08-06 21:45:00,
2013-08-06 16:47:00,101.4,71.9,29.78,WNW,296,1.0,13.0,39,0.00,,---,0.00,VWS V14.00,2013-08-06 21:47:00,
2013-08-06 16:52:00,101.4,71.9,29.78,SW,232,5.0,10.0,39,0.00,,---,0.00,VWS V14.00,2013-08-06 21:52:00,
2013-08-06 16:57:00,101.5,71.2,29.77,West,276,4.0,10.0,38,0.00,,---,0.00,VWS V14.00,2013-08-06 21:57:00,
2013-08-06 17:00:00,101.0,70.7,29.79,SSW,198,8.0,15.0,38,0.00,,---,0.00,VWS V14.00,2013-08-06 22:00:00,
2013-08-06 17:02:00,101.7,72.1,29.78,SSE,167,1.0,10.0,39,0.00,,---,0.00,VWS V14.00,2013-08-06 22:02:00,
2013-08-06 17:07:00,102.1,73.2,29.77,SSE,150,0.0,4.0,40,0.00,,---,0.00,VWS V14.00,2013-08-06 22:07:00,
2013-08-06 17:12:00,102.1,72.5,29.78,West,260,5.0,12.0,39,0.00,,---,0.00,VWS V14.00,2013-08-06 22:12:00,
2013-08-06 17:15:00,99.9,70.5,29.79,West,277,5.0,19.0,39,0.00,,---,0.00,VWS V14.00,2013-08-06 22:15:00,
2013-08-06 17:17:00,102.0,73.1,29.77,SSE,167,3.0,12.0,40,0.00,,---,0.00,VWS V14.00,2013-08-06 22:17:00,
2013-08-06 17:22:00,101.3,71.8,29.77,SW,236,5.0,7.0,39,0.00,,---,0.00,VWS V14.00,2013-08-06 22:22:00,
2013-08-06 17:27:00,101.0,71.5,29.77,West,259,6.0,7.0,39,0.00,,---,0.00,VWS V14.00,2013-08-06 22:27:00,
2013-08-06 17:30:00,100.9,72.9,29.78,South,184,2.0,11.0,41,0.00,,---,0.00,VWS V14.00,2013-08-06 22:30:00,
2013-08-06 17:32:00,101.0,73.0,29.76,SE,133,0.0,7.0,41,0.00,,---,0.00,VWS V14.00,2013-08-06 22:32:00,
2013-08-06 17:37:00,101.0,71.5,29.77,SW,229,7.0,11.0,39,0.00,,---,0.00,VWS V14.00,2013-08-06 22:37:00,
2013-08-06 17:42:00,100.9,71.4,29.77,South,178,5.0,11.0,39,0.00,,---,0.00,VWS V14.00,2013-08-06 22:42:00,
2013-08-06 17:45:00,101.4,71.1,29.78,WNW,286,2.0,13.0,38,0.00,,---,0.00,VWS V14.00,2013-08-06 22:45:00,
2013-08-06 17:47:00,100.7,70.5,29.77,SSW,196,6.0,11.0,38,0.00,,---,0.00,VWS V14.00,2013-08-06 22:47:00,
2013-08-06 17:52:00,100.7,72.0,29.76,ESE,109,4.0,8.0,40,0.00,,---,0.00,VWS V14.00,2013-08-06 22:52:00,
2013-08-06 17:57:00,100.6,71.9,29.76,SSW,192,10.0,10.0,40,0.00,,---,0.00,VWS V14.00,2013-08-06 22:57:00,
2013-08-06 18:00:00,101.9,71.5,29.77,South,182,0.0,10.0,38,0.00,,---,0.00,VWS V14.00,2013-08-06 23:00:00,
2013-08-06 18:02:00,100.3,70.9,29.76,SSE,163,5.0,12.0,39,0.00,,---,0.00,VWS V14.00,2013-08-06 23:02:00,
2013-08-06 18:07:00,100.0,71.4,29.76,SSW,202,11.0,11.0,40,0.00,,---,0.00,VWS V14.00,2013-08-06 23:07:00,
2013-08-06 18:12:00,99.5,70.9,29.76,SSW,195,0.0,11.0,40,0.00,,---,0.00,VWS V14.00,2013-08-06 23:12:00,
2013-08-06 18:15:00,101.6,72.0,29.77,SSW,212,4.0,12.0,39,0.00,,---,0.00,VWS V14.00,2013-08-06 23:15:00,
2013-08-06 18:17:00,99.1,71.3,29.76,South,187,6.0,11.0,41,0.00,,---,0.00,VWS V14.00,2013-08-06 23:17:00,
2013-08-06 18:22:00,99.0,70.5,29.75,WSW,250,5.0,10.0,40,0.00,,---,0.00,VWS V14.00,2013-08-06 23:22:00,
2013-08-06 18:27:00,99.1,71.3,29.75,SSW,201,4.0,10.0,41,0.00,,---,0.00,VWS V14.00,2013-08-06 23:27:00,
2013-08-06 18:30:00,101.1,72.3,29.76,SE,145,7.0,9.0,40,0.00,,---,0.00,VWS V14.00,2013-08-06 23:30:00,
2013-08-06 18:32:00,98.9,71.1,29.75,South,184,2.0,10.0,41,0.00,,---,0.00,VWS V14.00,2013-08-06 23:32:00,
2013-08-06 18:37:00,98.7,70.9,29.75,South,170,5.0,6.0,41,0.00,,---,0.00,VWS V14.00,2013-08-06 23:37:00,
2013-08-06 18:42:00,98.5,70.8,29.75,SSW,192,5.0,6.0,41,0.00,,---,0.00,VWS V14.00,2013-08-06 23:42:00,
2013-08-06 18:45:00,100.7,71.2,29.76,SSE,159,4.0,11.0,39,0.00,,---,0.00,VWS V14.00,2013-08-06 23:45:00,
2013-08-06 18:47:00,98.5,70.8,29.75,SSW,211,4.0,6.0,41,0.00,,---,0.00,VWS V14.00,2013-08-06 23:47:00,
2013-08-06 18:52:00,98.4,70.7,29.75,SSW,198,5.0,8.0,41,0.00,,---,0.00,VWS V14.00,2013-08-06 23:52:00,
2013-08-06 18:57:00,98.3,69.8,29.75,SSE,165,2.0,8.0,40,0.00,,---,0.00,VWS V14.00,2013-08-06 23:57:00,
2013-08-06 19:00:00,100.2,71.5,29.76,SSW,205,5.0,12.0,40,0.00,,---,0.00,VWS V14.00,2013-08-07 00:00:00,
2013-08-06 19:02:00,98.1,70.4,29.75,SSW,207,1.0,8.0,41,0.00,,---,0.00,VWS V14.00,2013-08-07 00:02:00,
2013-08-06 19:07:00,98.0,69.6,29.75,SSW,208,1.0,10.0,40,0.00,,---,0.00,VWS V14.00,2013-08-07 00:07:00,
2013-08-06 19:12:00,97.9,70.2,29.74,South,178,5.0,10.0,41,0.00,,---,0.00,VWS V14.00,2013-08-07 00:12:00,
2013-08-06 19:15:00,99.0,71.9,29.75,SSW,195,6.0,11.0,42,0.00,,---,0.00,VWS V14.00,2013-08-07 00:15:00,
2013-08-06 19:17:00,97.7,69.3,29.74,SW,218,2.0,10.0,40,0.00,,---,0.00,VWS V14.00,2013-08-07 00:17:00,
2013-08-06 19:22:00,97.6,69.9,29.74,SW,215,1.0,6.0,41,0.00,,---,0.00,VWS V14.00,2013-08-07 00:22:00,
2013-08-06 19:27:00,97.4,69.8,29.74,South,182,1.0,6.0,41,0.00,,---,0.00,VWS V14.00,2013-08-07 00:27:00,
2013-08-06 19:30:00,98.8,71.0,29.75,South,188,4.0,10.0,41,0.00,,---,0.00,VWS V14.00,2013-08-07 00:30:00,
2013-08-06 19:32:00,97.3,70.4,29.75,SW,221,1.0,6.0,42,0.00,,---,0.00,VWS V14.00,2013-08-07 00:32:00,
2013-08-06 19:37:00,97.1,69.5,29.75,SW,236,5.0,6.0,41,0.00,,---,0.00,VWS V14.00,2013-08-07 00:37:00,
2013-08-06 19:42:00,96.8,69.9,29.75,South,176,2.0,6.0,42,0.00,,---,0.00,VWS V14.00,2013-08-07 00:42:00,
2013-08-06 19:45:00,98.4,69.9,29.75,South,173,4.0,9.0,40,0.00,,---,0.00,VWS V14.00,2013-08-07 00:45:00,
2013-08-06 19:47:00,96.7,70.5,29.75,South,176,0.0,6.0,43,0.00,,---,0.00,VWS V14.00,2013-08-07 00:47:00,
2013-08-06 19:52:00,96.4,70.3,29.75,South,176,0.0,2.0,43,0.00,,---,0.00,VWS V14.00,2013-08-07 00:52:00,
2013-08-06 19:57:00,96.2,70.8,29.75,South,176,1.0,4.0,44,0.00,,---,0.00,VWS V14.00,2013-08-07 00:57:00,
2013-08-06 20:00:00,98.1,70.4,29.75,South,187,5.0,8.0,41,0.00,,---,0.00,VWS V14.00,2013-08-07 01:00:00,
2013-08-06 20:02:00,95.8,70.4,29.75,SSE,168,2.0,5.0,44,0.00,,---,0.00,VWS V14.00,2013-08-07 01:02:00,
2013-08-06 20:07:00,95.4,70.7,29.75,SSE,167,0.0,3.0,45,0.00,,---,0.00,VWS V14.00,2013-08-07 01:07:00,
2013-08-06 20:12:00,95.0,71.0,29.75,SSE,167,0.0,3.0,46,0.00,,---,0.00,VWS V14.00,2013-08-07 01:12:00,
2013-08-06 20:15:00,97.7,70.0,29.74,SSW,194,2.0,10.0,41,0.00,,---,0.00,VWS V14.00,2013-08-07 01:15:00,
2013-08-06 20:17:00,94.6,70.6,29.75,SSE,168,1.0,5.0,46,0.00,,---,0.00,VWS V14.00,2013-08-07 01:17:00,
2013-08-06 20:22:00,94.2,70.9,29.75,SSE,168,1.0,4.0,47,0.00,,---,0.00,VWS V14.00,2013-08-07 01:22:00,
2013-08-06 20:27:00,93.8,70.5,29.75,South,171,0.0,5.0,47,0.00,,---,0.00,VWS V14.00,2013-08-07 01:27:00,
2013-08-06 20:30:00,97.2,70.3,29.75,SW,221,1.0,6.0,42,0.00,,---,0.00,VWS V14.00,2013-08-07 01:30:00,
2013-08-06 20:32:00,93.5,70.9,29.75,South,171,0.0,5.0,48,0.00,,---,0.00,VWS V14.00,2013-08-07 01:32:00,
2013-08-06 20:37:00,93.2,70.6,29.75,South,171,0.0,1.0,48,0.00,,---,0.00,VWS V14.00,2013-08-07 01:37:00,
2013-08-06 20:42:00,93.0,71.0,29.76,South,171,0.0,2.0,49,0.00,,---,0.00,VWS V14.00,2013-08-07 01:42:00,
2013-08-06 20:45:00,96.6,70.4,29.75,South,176,0.0,6.0,43,0.00,,---,0.00,VWS V14.00,2013-08-07 01:45:00,
2013-08-06 20:47:00,92.7,71.3,29.76,South,171,0.0,2.0,50,0.00,,---,0.00,VWS V14.00,2013-08-07 01:47:00,
2013-08-06 20:52:00,92.4,71.1,29.76,South,171,0.0,0.0,50,0.00,,---,0.00,VWS V14.00,2013-08-07 01:52:00,
2013-08-06 20:57:00,92.1,70.8,29.76,South,171,0.0,2.0,50,0.00,,---,0.00,VWS V14.00,2013-08-07 01:57:00,
2013-08-06 21:00:00,95.6,70.9,29.75,SSE,167,0.0,5.0,45,0.00,,---,0.00,VWS V14.00,2013-08-07 02:00:00,
2013-08-06 21:02:00,91.8,71.1,29.76,South,171,0.0,2.0,51,0.00,,---,0.00,VWS V14.00,2013-08-07 02:02:00,
2013-08-06 21:07:00,91.4,71.3,29.76,South,171,0.0,1.0,52,0.00,,---,0.00,VWS V14.00,2013-08-07 02:07:00,
2013-08-06 21:12:00,91.1,71.0,29.76,South,171,0.0,1.0,52,0.00,,---,0.00,VWS V14.00,2013-08-07 02:12:00,
2013-08-06 21:15:00,94.4,70.4,29.75,South,169,1.0,5.0,46,0.00,,---,0.00,VWS V14.00,2013-08-07 02:15:00,
2013-08-06 21:17:00,90.8,71.3,29.76,South,171,1.0,1.0,53,0.00,,---,0.00,VWS V14.00,2013-08-07 02:17:00,
2013-08-06 21:22:00,90.4,70.9,29.76,South,171,0.0,1.0,53,0.00,,---,0.00,VWS V14.00,2013-08-07 02:22:00,
2013-08-06 21:27:00,90.0,71.1,29.76,South,171,0.0,2.0,54,0.00,,---,0.00,VWS V14.00,2013-08-07 02:27:00,
2013-08-06 21:30:00,93.4,70.8,29.75,South,171,0.0,5.0,48,0.00,,---,0.00,VWS V14.00,2013-08-07 02:30:00,
2013-08-06 21:32:00,89.7,70.9,29.76,South,171,0.0,5.0,54,0.00,,---,0.00,VWS V14.00,2013-08-07 02:32:00,
2013-08-06 21:37:00,89.3,71.0,29.76,South,171,0.0,4.0,55,0.00,,---,0.00,VWS V14.00,2013-08-07 02:37:00,
2013-08-06 21:42:00,89.0,70.8,29.77,South,171,0.0,4.0,55,0.00,,---,0.00,VWS V14.00,2013-08-07 02:42:00,
2013-08-06 21:45:00,92.6,70.7,29.75,South,171,0.0,2.0,49,0.00,,---,0.00,VWS V14.00,2013-08-07 02:45:00,
2013-08-06 21:47:00,88.8,70.6,29.77,South,171,1.0,4.0,55,0.00,,---,0.00,VWS V14.00,2013-08-07 02:47:00,
2013-08-06 21:52:00,88.5,70.8,29.78,SSE,163,2.0,5.0,56,0.00,,---,0.00,VWS V14.00,2013-08-07 02:52:00,
2013-08-06 21:58:00,88.2,70.5,29.78,SSE,153,3.0,8.0,56,0.00,,---,0.00,VWS V14.00,2013-08-07 02:58:00,
2013-08-06 22:00:00,91.6,70.9,29.76,South,171,1.0,2.0,51,0.00,,---,0.00,VWS V14.00,2013-08-07 03:00:00,
2013-08-06 22:03:00,88.0,70.9,29.79,SSE,153,2.0,8.0,57,0.00,,---,0.00,VWS V14.00,2013-08-07 03:03:00,
2013-08-06 22:08:00,87.7,70.6,29.79,SSE,153,4.0,7.0,57,0.00,,---,0.00,VWS V14.00,2013-08-07 03:08:00,
2013-08-06 22:13:00,87.3,70.7,29.79,SSE,160,5.0,8.0,58,0.00,,---,0.00,VWS V14.00,2013-08-07 03:13:00,
2013-08-06 22:15:00,90.6,71.1,29.76,South,171,1.0,2.0,53,0.00,,---,0.00,VWS V14.00,2013-08-07 03:15:00,
2013-08-06 22:18:00,87.1,71.5,29.79,SSW,203,2.0,8.0,60,0.00,,---,0.00,VWS V14.00,2013-08-07 03:18:00,
2013-08-06 22:23:00,87.1,72.0,29.80,South,169,1.0,6.0,61,0.00,,---,0.00,VWS V14.00,2013-08-07 03:23:00,
2013-08-06 22:28:00,86.9,72.3,29.80,South,173,1.0,6.0,62,0.00,,---,0.00,VWS V14.00,2013-08-07 03:28:00,
2013-08-06 22:30:00,89.5,70.7,29.76,South,171,2.0,5.0,54,0.00,,---,0.00,VWS V14.00,2013-08-07 03:30:00,
2013-08-06 22:33:00,86.8,72.7,29.81,South,183,3.0,7.0,63,0.00,,---,0.00,VWS V14.00,2013-08-07 03:33:00,
2013-08-06 22:38:00,86.7,73.1,29.81,South,184,2.0,6.0,64,0.00,,---,0.00,VWS V14.00,2013-08-07 03:38:00,
2013-08-06 22:43:00,86.6,73.0,29.82,South,186,5.0,6.0,64,0.00,,---,0.00,VWS V14.00,2013-08-07 03:43:00,
2013-08-06 22:45:00,88.6,70.9,29.77,South,171,1.0,4.0,56,0.00,,---,0.00,VWS V14.00,2013-08-07 03:45:00,
2013-08-06 22:48:00,86.5,73.3,29.82,South,176,2.0,6.0,65,0.00,,---,0.00,VWS V14.00,2013-08-07 03:48:00,
2013-08-06 22:53:00,86.4,73.7,29.82,South,177,0.0,3.0,66,0.00,,---,0.00,VWS V14.00,2013-08-07 03:53:00,
2013-08-06 22:58:00,86.3,73.6,29.82,South,176,0.0,5.0,66,0.00,,---,0.00,VWS V14.00,2013-08-07 03:58:00,
2013-08-06 23:00:00,87.9,70.8,29.79,SSE,154,4.0,8.0,57,0.00,,---,0.00,VWS V14.00,2013-08-07 04:00:00,
2013-08-06 23:01:00,86.2,74.0,29.82,South,176,0.0,5.0,67,0.00,,---,0.00,VWS V14.00,2013-08-07 04:01:00,
2013-08-06 23:06:00,86.0,73.8,29.82,South,185,4.0,4.0,67,0.00,,---,0.00,VWS V14.00,2013-08-07 04:06:00,
2013-08-06 23:11:00,85.8,74.0,29.82,South,184,4.0,7.0,68,0.00,,---,0.00,VWS V14.00,2013-08-07 04:11:00,
2013-08-06 23:15:00,87.1,71.5,29.79,SSW,199,4.0,8.0,60,0.00,,---,0.00,VWS V14.00,2013-08-07 04:15:00,
2013-08-06 23:16:00,85.7,73.9,29.82,SSW,196,7.0,8.0,68,0.00,,---,0.00,VWS V14.00,2013-08-07 04:16:00,
2013-08-06 23:21:00,85.6,73.4,29.83,SW,236,7.0,7.0,67,0.00,,---,0.00,VWS V14.00,2013-08-07 04:21:00,
2013-08-06 23:26:00,85.7,73.0,29.83,SSW,202,5.0,9.0,66,0.00,,---,0.00,VWS V14.00,2013-08-07 04:26:00,
2013-08-06 23:30:00,86.8,72.7,29.81,South,181,5.0,7.0,63,0.00,,---,0.00,VWS V14.00,2013-08-07 04:30:00,
2013-08-06 23:31:00,85.7,73.0,29.83,South,175,5.0,9.0,66,0.00,,---,0.00,VWS V14.00,2013-08-07 04:31:00,
2013-08-06 23:36:00,85.7,72.6,29.83,SSW,192,3.0,6.0,65,0.00,,---,0.00,VWS V14.00,2013-08-07 04:36:00,
2013-08-06 23:41:00,85.7,72.6,29.83,South,173,6.0,8.0,65,0.00,,---,0.00,VWS V14.00,2013-08-07 04:41:00,
2013-08-06 23:45:00,86.5,73.3,29.82,South,177,0.0,6.0,65,0.00,,---,0.00,VWS V14.00,2013-08-07 04:45:00,
2013-08-06 23:46:00,85.7,72.1,29.83,South,175,4.0,8.0,64,0.00,,---,0.00,VWS V14.00,2013-08-07 04:46:00,
2013-08-06 23:51:00,85.7,71.7,29.83,SW,215,1.0,6.0,63,0.00,,---,0.00,VWS V14.00,2013-08-07 04:51:00,
2013-08-06 23:56:00,85.6,71.6,29.83,SSW,205,6.0,8.0,63,0.00,,---,0.00,VWS V14.00,2013-08-07 04:56:00,